{"data":{"norad_id":53686,"intl_designator":"2022-105AQ","name":"STARLINK-4467","alt_names":[],"object_type":"PAYLOAD","status":"ACTIVE","operator":null,"country":"US","launch_date":"2022-08-31","launch_site_code":"AFWTR","launch_vehicle":null,"mission":null,"orbit_class":"UNKNOWN","rcs_meters":null,"size_class":null,"mass_kg":null,"dimensions":null,"purposes":["comms"],"wikipedia_slug":null,"has_3d_model":false,"image_url":null,"decayed_at":null,"tle_current":{"epoch":"2026-09-20T21:44:48.465600Z","epoch_age_seconds":46603,"freshness":"FRESH","line1":"1 53686U 22105AQ  26263.90611650  .00000268  00000+0  22502-4 0  9995","line2":"2 53686  97.2840 137.6187 0002615  81.3538 278.7986 15.05654867222601","mean_motion":15.05654867,"eccentricity":0.0002615,"inclination_deg":97.284,"raan_deg":137.6187,"arg_perigee_deg":81.3538,"mean_anomaly_deg":278.7986,"bstar":2.2502e-5,"rev_number":22260,"period_min":95.639447761968,"perigee_km":547.684648951,"apogee_km":551.30780112769,"semimajor_km":6927.6332250393,"source":"CELESTRAK","updated_at":"2026-09-21T09:00:32.979580Z"}}}